| time (UTC) | temp F | wind direction | speed knots | gust knots | rain 1hr in | rain 24hr in | rain mn in | humidity % | barometer mb |
| 20260504100247 | 73 | 0.0 | 0.0 | 0.00 | 0.00 | 0.00 | 89 | 1014.1 | |
| 20260504081051 | 77 | 0.0 | 0.0 | 0.00 | 0.00 | 0.00 | 71 | 1014.6 | |
| 20260504050738 | 81 | 0.0 | 0.0 | 0.00 | 0.00 | 0.00 | 61 | 1015.6 | |
| 20260504045728 | 79 | 0.0 | 0.0 | 0.00 | 0.00 | 0.00 | 62 | 1015.6 | |
| 20260504044717 | 79 | 0.0 | 0.0 | 0.00 | 0.00 | 0.00 | 61 | 1015.7 | |
| 20260504043706 | 79 | 0.0 | 0.0 | 0.00 | 0.00 | 0.00 | 60 | 1015.7 | |
| 20260504042656 | 77 | 0.0 | 0.0 | 0.00 | 0.00 | 0.00 | 65 | 1016.0 | |
| 20260504041646 | 77 | 0.0 | 0.0 | 0.00 | 0.00 | 0.00 | 65 | 1016.0 | |
| 20260504040635 | 77 | 0.0 | 0.0 | 0.00 | 0.00 | 0.00 | 67 | 1016.1 | |
| 20260504035624 | 0 | 0.0 | 0.0 | 0.00 | 0.00 | 0.00 | |||
| 20260504034614 | 77 | 0.0 | 0.0 | 0.00 | 0.00 | 0.00 | 67 | 1016.2 | |
| 20260504033604 | 77 | 0.0 | 0.0 | 0.00 | 0.00 | 0.00 | 63 | 1016.0 | |
| 20260504032553 | 77 | 0.0 | 0.0 | 0.00 | 0.00 | 0.00 | 64 | 1016.1 | |
| 20260504031543 | 77 | 0.0 | 0.0 | 0.00 | 0.00 | 0.00 | 63 | 1016.2 | |
| 20260504030532 | 77 | 0.0 | 0.0 | 0.00 | 0.00 | 0.00 | 67 | 1016.5 | |
| 20260504025521 | 77 | 0.0 | 0.0 | 0.00 | 0.00 | 0.00 | 65 | 1016.6 | |
| 20260504024509 | 77 | 0.0 | 0.0 | 0.00 | 0.00 | 0.00 | 64 | 1016.2 | |
| 20260504023458 | 75 | 0.0 | 0.0 | 0.00 | 0.00 | 0.00 | 67 | 1016.5 | |
| 20260504022448 | 75 | 0.0 | 0.0 | 0.00 | 0.00 | 0.00 | 69 | 1016.3 | |
| 20260504021438 | 75 | 0.0 | 0.0 | 0.00 | 0.00 | 0.00 | 67 | 1016.3 | |
| 20260504020427 | 75 | 0.0 | 0.0 | 0.00 | 0.00 | 0.00 | 67 | 1016.2 | |
| 20260504015417 | 73 | 0.0 | 0.0 | 0.00 | 0.00 | 0.00 | 80 | 1016.5 | |
| 20260504014406 | 75 | 0.0 | 0.0 | 0.00 | 0.00 | 0.00 | 75 | 1016.7 | |
| 20260504013356 | 73 | 0.0 | 0.0 | 0.00 | 0.00 | 0.00 | 68 | 1016.3 | |
| 20260504012345 | 73 | 0.0 | 0.0 | 0.00 | 0.00 | 0.00 | 71 | 1016.1 | |
| 20260504011334 | 73 | 0.0 | 0.0 | 0.00 | 0.00 | 0.00 | 77 | 1015.7 | |
| 20260504010324 | 72 | 0.0 | 0.0 | 0.00 | 0.00 | 0.00 | 83 | 1015.7 | |
| 20260504005314 | 72 | 0.0 | 0.0 | 0.00 | 0.00 | 0.00 | 85 | 1015.7 | |
| 20260504004303 | 72 | 0.0 | 0.0 | 0.00 | 0.00 | 0.00 | 96 | 1016.1 | |
| 20260504003252 | 70 | 0.0 | 0.0 | 0.00 | 0.00 | 0.00 | 97 | 1016.0 | |
| 20260504002242 | 70 | 0.0 | 0.0 | 0.00 | 0.00 | 0.00 | 98 | 1015.7 | |
| 20260504001231 | 70 | 0.0 | 0.0 | 0.00 | 0.00 | 0.00 | 98 | 1015.5 | |
| 20260504000219 | 70 | 0.0 | 0.0 | 0.00 | 0.00 | 0.00 | 98 | 1015.6 | |
| 20260503235206 | 70 | 0.0 | 0.0 | 0.00 | 0.00 | 0.00 | 98 | 1015.5 | |
| 20260503234154 | 70 | 0.0 | 0.0 | 0.00 | 0.00 | 0.00 | 98 | 1015.2 | |
| 20260503233141 | 70 | 0.0 | 0.0 | 0.00 | 0.00 | 0.00 | 98 | 1015.0 | |
| 20260503232129 | 68 | 0.0 | 0.0 | 0.00 | 0.00 | 0.00 | 98 | 1015.0 | |
| 20260503231117 | 68 | 0.0 | 0.0 | 0.00 | 0.00 | 0.00 | 98 | 1015.2 | |
| 20260503225050 | 68 | 0.0 | 0.0 | 0.00 | 0.00 | 0.00 | 98 | 1014.7 | |
| 20260503224037 | 68 | 0.0 | 0.0 | 0.00 | 0.00 | 0.00 | 98 | 1014.6 | |
| 20260503223027 | 68 | 0.0 | 0.0 | 0.00 | 0.00 | 0.00 | 98 | 1014.2 | |
| 20260503222013 | 68 | 0.0 | 0.0 | 0.00 | 0.00 | 0.00 | 98 | 1014.2 | |
| 20260503221001 | 68 | 0.0 | 0.0 | 0.00 | 0.00 | 0.00 | 98 | 1014.0 | |
| 20260503215949 | 68 | 0.0 | 0.0 | 0.00 | 0.00 | 0.00 | 98 | 1013.7 | |
| 20260503214939 | 68 | 0.0 | 0.0 | 0.00 | 0.00 | 0.00 | 97 | 1013.7 | |
| 20260503213928 | 68 | 0.0 | 0.0 | 0.00 | 0.00 | 0.00 | 97 | 1013.6 | |
| 20260503212918 | 68 | 0.0 | 0.0 | 0.00 | 0.00 | 0.00 | 97 | 1013.2 | |
| 20260503211906 | 68 | 0.0 | 0.0 | 0.00 | 0.00 | 0.00 | 98 | 1013.1 | |
| 20260503210855 | 68 | 0.0 | 0.0 | 0.00 | 0.00 | 0.00 | 98 | 1012.7 | |
| 20260503205842 | 68 | 0.0 | 0.0 | 0.00 | 0.00 | 0.00 | 98 | 1012.8 | |
| 20260503204830 | 68 | 0.0 | 0.0 | 0.00 | 0.00 | 0.00 | 98 | 1012.8 | |
| 20260503203818 | 68 | 0.0 | 0.0 | 0.00 | 0.00 | 0.00 | 98 | 1012.7 | |
| 20260503202806 | 70 | 0.0 | 0.0 | 0.00 | 0.00 | 0.00 | 98 | 1012.6 | |
| 20260503201756 | 70 | 0.0 | 0.0 | 0.00 | 0.00 | 0.00 | 98 | 1012.6 | |
| 20260503200745 | 70 | 0.0 | 0.0 | 0.00 | 0.00 | 0.00 | 98 | 1012.7 | |
| 20260503195734 | 70 | 0.0 | 0.0 | 0.00 | 0.00 | 0.00 | 98 | 1012.7 | |
| 20260503194722 | 0 | 0.0 | 0.0 | 0.00 | 0.00 | 0.00 | |||
| 20260503193711 | 70 | 0.0 | 0.0 | 0.00 | 0.00 | 0.00 | 98 | 1012.8 | |
| 20260503192700 | 70 | 0.0 | 0.0 | 0.00 | 0.00 | 0.00 | 98 | 1012.8 | |
| 20260503191646 | 70 | 0.0 | 0.0 | 0.00 | 0.00 | 0.00 | 98 | 1013.2 | |
| 20260503190636 | 70 | 0.0 | 0.0 | 0.00 | 0.00 | 0.00 | 98 | 1013.2 | |
| 20260503185625 | 70 | 0.0 | 0.0 | 0.00 | 0.00 | 0.00 | 98 | 1013.2 | |
| 20260503184612 | 70 | 0.0 | 0.0 | 0.00 | 0.00 | 0.00 | 98 | 1013.0 | |
| 20260503183601 | 70 | 0.0 | 0.0 | 0.00 | 0.00 | 0.00 | 98 | 1013.2 | |
| 20260503182547 | 70 | 0.0 | 0.0 | 0.00 | 0.00 | 0.00 | 98 | 1013.3 | |
| 20260503181535 | 70 | 0.0 | 0.0 | 0.00 | 0.00 | 0.00 | 98 | 1013.7 | |
| 20260503180522 | 70 | 0.0 | 0.0 | 0.00 | 0.00 | 0.00 | 97 | 1013.7 | |
| 20260503175512 | 70 | 0.0 | 0.0 | 0.00 | 0.00 | 0.00 | 97 | 1014.0 | |
| 20260503174458 | 70 | 0.0 | 0.0 | 0.00 | 0.00 | 0.00 | 98 | 1014.1 | |
| 20260503173446 | 70 | 0.0 | 0.0 | 0.00 | 0.00 | 0.00 | 98 | 1014.2 | |
| 20260503172435 | 70 | 0.0 | 0.0 | 0.00 | 0.00 | 0.00 | 97 | 1014.2 | |
| 20260503171424 | 70 | 0.0 | 0.0 | 0.00 | 0.00 | 0.00 | 98 | 1014.5 | |
| 20260503170412 | 70 | 0.0 | 0.0 | 0.00 | 0.00 | 0.00 | 97 | 1014.6 | |
| 20260503150150 | 72 | 0.0 | 0.0 | 0.00 | 0.00 | 0.00 | 98 | 1014.2 | |
| 20260503130946 | 0 | 0.0 | 0.0 | 0.00 | 0.00 | 0.00 | |||
| 20260503110730 | 72 | 0.0 | 0.0 | 0.00 | 0.00 | 0.00 | 98 | 1011.7 |